Almeria, Spain

9:13 AM CEST en Septiembre 20, 2018 (GMT +0200)
Almeria

Tiempo Historia de LEAM - Enero, 2018

Change the Weather History Date:

Viernes, Enero 12, 2018

  Actual Average Record
Temperature  
Temperatura media 54 ° F -  
Temperatura máxima 61 ° F 59 ° F 66 ° F (1997)
Temperatura mínima 48 ° F 46 ° F 37 ° F (2003)
Degree Days  
Grados día de calefacción 10    
Growing Degree Days 4 (Base 50)    
Moisture  
Punto de rocío 36 ° F    
Average Humidity 47    
Maximum Humidity 87    
Minimum Humidity 18    
Precipitación  
Precipitación 0.00 pul 0.03 pul - ()
Presión al nivel del mar  
Presión al nivel del mar 30.25 pul    
Viento  
Velocidad del viento 10 mph ()    
Velocidad máxima del viento 21 mph    
Max Gust Speed 36 mph    
Visibilidad 6.2 Millas    
Eventos      
Averages and records for this station are not official NWS values.
T = Trace of Precipitation, MM = Missing Value Source: Averaged Metar Reports

Daily Weather History Graph

Daily Weather History Graph

Search for Another Location

Airport or City:

Astronomía

Jan. 12, 2018 Salida Puesta
Hora real 8:22 AM CET 6:13 PM CET
Crepúsculo civil 7:53 AM CET 6:42 PM CET
Crepúsculo náutico 7:21 AM CET 7:14 PM CET
Crepúsculo astronómico 6:50 AM CET 7:45 PM CET
Luna 4:17 AM CET (1/12) 3:01 PM CET (1/12)
Horas de luz 10h 48m
Horas de luz
9h 51m
Creciente menguante, 18% of the Moon is Illuminated
Ene 12
Creciente menguante
Ene 17
Nueva
Ene 24
Cuarto creciente
Ene 31
Luna llena
Feb 7
Cuarto menguante

Hourly Weather History & Observations

Hora (CET) Temp. Punto de rocío Humedad Presión Visibilidad Wind Dir Velocidad del viento Velocidad de ráfagas Precip Eventos Condiciones
12:00 AM 55 ° F 29 ° F 25% 30.26 pul - NNO 12.7 mph - -  
12:00 AM 55.4 ° F 30.2 ° F 38% 30.24 pul 6.2 mi NNO 12.7 mph - N/A   Desconocido
12:30 AM 55.4 ° F 28.4 ° F 36% 30.24 pul 6.2 mi NO 11.5 mph - N/A   Desconocido
1:00 AM 55 ° F 29 ° F 24% 30.25 pul - NNO 13.8 mph - -  
1:00 AM 55.4 ° F 28.4 ° F 36% 30.24 pul 6.2 mi NNO 12.7 mph - N/A   Desconocido
1:30 AM 55.4 ° F 28.4 ° F 36% 30.24 pul 6.2 mi NNO 15.0 mph - N/A   Desconocido
2:00 AM 54 ° F 28 ° F 24% 30.25 pul - NNO 15.0 mph - -  
2:00 AM 55.4 ° F 28.4 ° F 36% 30.24 pul 6.2 mi NNO 15.0 mph - N/A   Desconocido
2:30 AM 55.4 ° F 28.4 ° F 36% 30.21 pul 6.2 mi NNO 17.3 mph - N/A   Desconocido
3:00 AM 54 ° F 27 ° F 23% 30.24 pul - NNO 20.7 mph - -  
3:00 AM 55.4 ° F 28.4 ° F 36% 30.21 pul 6.2 mi NNO 19.6 mph 32.2 mph N/A   Desconocido
3:30 AM 53.6 ° F 28.4 ° F 38% 30.21 pul 6.2 mi NNO 15.0 mph - N/A   Desconocido
4:00 AM 54 ° F 28 ° F 24% 30.24 pul - NNO 17.3 mph - -  
4:00 AM 53.6 ° F 28.4 ° F 38% 30.21 pul 6.2 mi NNO 17.3 mph - N/A   Desconocido
4:30 AM 53.6 ° F 28.4 ° F 38% 30.21 pul 6.2 mi NNO 16.1 mph - N/A   Desconocido
5:00 AM 54 ° F 28 ° F 24% 30.24 pul - NNO 20.7 mph - -  
5:00 AM 53.6 ° F 28.4 ° F 38% 30.21 pul - NNO 20.7 mph - N/A   Despejado
5:30 AM 53.6 ° F 28.4 ° F 38% 30.21 pul - NNO 20.7 mph 35.7 mph N/A   Despejado
6:00 AM 54 ° F 27 ° F 22% 30.23 pul - NO 18.4 mph - -  
6:00 AM 53.6 ° F 26.6 ° F 35% 30.21 pul - NO 18.4 mph 29.9 mph N/A   Despejado
6:30 AM 53.6 ° F 24.8 ° F 33% 30.21 pul - NNO 16.1 mph - N/A   Despejado
7:00 AM 52 ° F 27 ° F 25% 30.24 pul 31 mi NO 13.8 mph - -   Despejado
7:00 AM 53.6 ° F 26.6 ° F 35% 30.21 pul - NO 12.7 mph 24.2 mph N/A   Despejado
7:30 AM 50.0 ° F 28.4 ° F 43% 30.24 pul - NO 6.9 mph - N/A   Despejado
8:00 AM 48 ° F 27 ° F 32% 30.26 pul - NO 9.2 mph - -  
8:00 AM 48.2 ° F 26.6 ° F 43% 30.24 pul - NO 9.2 mph - N/A   Despejado
8:30 AM 48.2 ° F 26.6 ° F 43% 30.24 pul - NO 9.2 mph - N/A   Despejado
9:00 AM 51 ° F 25 ° F 24% 30.27 pul - NO 11.5 mph - -  
9:00 AM 51.8 ° F 24.8 ° F 35% 30.27 pul - NO 11.5 mph - N/A   Despejado
9:30 AM 53.6 ° F 24.8 ° F 33% 30.27 pul - NO 11.5 mph - N/A   Despejado
10:00 AM 56 ° F 24 ° F 18% 30.29 pul 31 mi ONO 9.2 mph - -   Despejado
10:00 AM 55.4 ° F 24.8 ° F 31% 30.27 pul - ONO 8.1 mph - N/A   Despejado
10:30 AM 57.2 ° F 33.8 ° F 41% 30.30 pul - Sin viento Sin viento - N/A   Despejado
11:00 AM 59 ° F 36 ° F 29% 30.31 pul - SO 4.6 mph - -  
11:00 AM 57.2 ° F 35.6 ° F 44% 30.30 pul - Variable 2.3 mph - N/A   Despejado
11:30 AM 59.0 ° F 42.8 ° F 55% 30.30 pul - Variable 2.3 mph - N/A   Despejado
12:00 PM 60 ° F 40 ° F 36% 30.32 pul - SSO 5.8 mph - -  
12:00 PM 59.0 ° F 39.2 ° F 48% 30.30 pul - SSO 4.6 mph - N/A   Despejado
12:30 PM 59.0 ° F 42.8 ° F 55% 30.30 pul - SO 6.9 mph - N/A   Despejado
1:00 PM 60 ° F 41 ° F 38% 30.30 pul 31 mi SO 9.2 mph - -   Despejado
1:00 PM 59.0 ° F 41.0 ° F 51% 30.30 pul - SO 9.2 mph - N/A   Despejado
1:30 PM 59.0 ° F 41.0 ° F 51% 30.27 pul - SO 9.2 mph - N/A   Despejado
2:00 PM 60 ° F 43 ° F 41% 30.27 pul - SO 10.4 mph - -  
2:00 PM 59.0 ° F 42.8 ° F 55% 30.24 pul - SO 9.2 mph - N/A   Despejado
2:30 PM 59.0 ° F 44.6 ° F 59% 30.24 pul - SSO 6.9 mph - N/A   Despejado
3:00 PM 60 ° F 43 ° F 43% 30.25 pul - SSO 4.6 mph - -  
3:00 PM 59.0 ° F 42.8 ° F 55% 30.24 pul - SSO 4.6 mph - N/A   Despejado
3:30 PM 59.0 ° F 44.6 ° F 59% 30.21 pul - Sur 3.5 mph - N/A   Despejado
4:00 PM 61 ° F 44 ° F 42% 30.23 pul 31 mi SSE 3.5 mph - -   Despejado
4:00 PM 59.0 ° F 42.8 ° F 55% 30.21 pul - Variable 2.3 mph - N/A   Despejado
4:30 PM 59.0 ° F 44.6 ° F 59% 30.21 pul - Variable 2.3 mph - N/A   Despejado
5:00 PM 60 ° F 44 ° F 43% 30.24 pul - SSO 3.5 mph - -  
5:00 PM 59.0 ° F 42.8 ° F 55% 30.21 pul - SSO 3.5 mph - N/A   Despejado
5:30 PM 57.2 ° F 44.6 ° F 63% 30.21 pul - SSO 5.8 mph - N/A   Despejado
6:00 PM 56 ° F 45 ° F 56% 30.25 pul - SO 9.2 mph - -  
6:00 PM 55.4 ° F 44.6 ° F 67% 30.24 pul - SO 8.1 mph - N/A   Despejado
6:30 PM 53.6 ° F 42.8 ° F 67% 30.21 pul - OSO 3.5 mph - N/A   Despejado
7:00 PM 53 ° F 43 ° F 60% 30.24 pul 31 mi Oeste 3.5 mph - -   Nubes dispersas
7:00 PM 53.6 ° F 44.6 ° F 72% 30.21 pul - OSO 3.5 mph - N/A   Despejado
7:30 PM 53.6 ° F 44.6 ° F 72% 30.24 pul - Sin viento Sin viento - N/A   Despejado
8:00 PM 53 ° F 43 ° F 60% 30.25 pul - Sin viento Sin viento - -  
8:00 PM 51.8 ° F 42.8 ° F 71% 30.24 pul - Variable 1.2 mph - N/A   Despejado
8:30 PM 53.6 ° F 42.8 ° F 67% 30.24 pul - Variable 2.3 mph - N/A   Despejado
9:00 PM 52 ° F 43 ° F 63% 30.25 pul - Norte 1.2 mph - -  
9:00 PM 51.8 ° F 42.8 ° F 71% 30.24 pul - Sin viento Sin viento - N/A   Despejado
9:30 PM 51.8 ° F 44.6 ° F 76% 30.24 pul - NO 1.2 mph - N/A   Despejado
10:00 PM 52 ° F 44 ° F 65% 30.25 pul 31 mi Norte 1.2 mph - -   Nublado
10:00 PM 51.8 ° F 44.6 ° F 76% 30.24 pul - Norte 1.2 mph - N/A   Despejado
10:30 PM 51.8 ° F 44.6 ° F 76% 30.24 pul - Sin viento Sin viento - N/A   Despejado
11:00 PM 49 ° F 44 ° F 75% 30.26 pul - NO 2.3 mph - -  
11:00 PM 48.2 ° F 44.6 ° F 87% 30.24 pul - NO 2.3 mph - N/A   Despejado
11:30 PM 50.0 ° F 42.8 ° F 76% 30.24 pul - NNO 5.8 mph - N/A   Despejado